This demonstration page uses our WeatherBlox Daily Observations layout. Learn more.

Left ArrowRight Arrow

34.02893, -84.19858

Hourly Observations for February 8, 2021

Temp ( °F °C ) Dew Point ( °F °C ) Humidity (%) Winds ( mph kmh ) Pressure ( in mb ) Visibility ( mi km ) Precip ( " mm )
12:53 am 00:53 Clear 30 -1.1 29 -1.7 96 96 Calm 30.19 1023 9 14 0.00 0.00
1:53 am 01:53 Clear 29 -1.7 28 -2.2 96 96 Calm 30.22 1023 9 14 0.00 0.00
2:53 am 02:53 Clear 29 -1.7 28 -2.2 96 96 Calm 30.21 1023 8 13 0.00 0.00
3:53 am 03:53 Clear 30 -1.1 28 -2.2 92 92 Calm 30.23 1024 10 16 0.00 0.00
4:53 am 04:53 Clear 31 -0.6 29 -1.7 92 92 Calm 30.24 1024 10 16 0.00 0.00
5:53 am 05:53 Clear 29 -1.7 27 -2.8 92 92 Calm 30.26 1025 10 16 0.00 0.00
6:53 am 06:53 Clear 33 0.6 31 -0.6 92 92 E 3 6 30.27 1025 10 16 0.00 0.00
7:53 am 07:53 Sunny 34 1.1 30 -1.1 85 85 E 3 6 30.29 1026 10 16 0.00 0.00
8:53 am 08:53 Sunny 38 3.3 31 -0.6 76 76 VRB 5 7 30.31 1027 10 16 0.00 0.00
9:53 am 09:53 Sunny 43 6.1 32 0 65 65 VRB 5 7 30.32 1027 10 16 0.00 0.00
10:53 am 10:53 Sunny 49 9.4 37 2.8 64 64 E 7 11 30.32 1027 10 16 0.00 0.00
11:53 am 11:53 Sunny 51 10.6 37 2.8 59 59 SSE 9 15 30.30 1026 10 16 0.00 0.00
12:53 pm 12:53 Sunny 54 12.2 37 2.8 53 53 S 10 17 30.27 1025 10 16 0.00 0.00
1:53 pm 13:53 Sunny 55 12.8 36 2.2 49 49 SSE 10 17 30.22 1024 10 16 0.00 0.00
2:53 pm 14:53 Sunny 56 13.3 36 2.2 47 47 SE 7 11 30.21 1023 10 16 0.00 0.00
3:53 pm 15:53 Sunny 57 13.9 36 2.2 45 45 undefined N/A 30.20 1023 10 16 0.00 0.00
4:53 pm 16:53 Sunny 57 13.9 35 1.7 44 44 SSE 8 13 30.20 1023 10 16 0.00 0.00
5:53 pm 17:53 Sunny 54 12.2 36 2.2 51 51 ESE 7 11 30.21 1023 10 16 0.00 0.00
6:53 pm 18:53 Clear 51 10.6 37 2.8 59 59 ESE 3 6 30.22 1023 10 16 0.00 0.00
7:53 pm 19:53 Clear 50 10 37 2.8 61 61 ESE 3 6 30.22 1023 10 16 0.00 0.00
8:53 pm 20:53 Clear 50 10 38 3.3 63 63 Calm 30.22 1023 10 16 0.00 0.00
9:53 pm 21:53 Mostly Clear 49 9.4 39 3.9 69 69 E 3 6 30.22 1023 10 16 0.00 0.00
10:53 pm 22:53 Mostly Cloudy 49 9.4 40 4.4 71 71 Calm 30.21 1023 10 16 0.00 0.00
11:53 pm 23:53 Cloudy 49 9.4 41 5 74 74 Calm 30.19 1022 10 16 0.00 0.00

Powered by AerisWeather